User: anonymous   Login
Location: The Jewett Observatory
(46.7288°N, 117.1525°W)
Time: 01:18:07
(UTC-07:00)
Language:

Cosmos 1633 - Orbit

View from above orbital plane
View from above orbital plane
View from above satellite
View from above satellite

Ground track
Ground track

The orbit data is extracted from the following two-line orbital elements,

1 15592U 85020A   18145.58480978 +.00001019 +00000-0 +34216-4 0  9996
2 15592 082.5366 335.9734 0014566 050.2383 310.0137 15.29528426816331
Epoch (UTC): 25 May 2018 14:02:07
Eccentricity: 0.0014566
inclination: 82.5366°
perigee height: 467 km
apogee height: 487 km
right ascension of ascending node: 335.9734°
argument of perigee: 50.2383°
revolutions per day: 15.29528426
mean anomaly at epoch: 310.0137°
orbit number at epoch: 81633

The dashed part of the orbit path shows where the satellite is in the earth's shadow,  

DLR